Tracking 21076 objects as of 7-Aug-2020
HD Live streaming from Space Station
objects crossing your sky now

FREGAT DEB

Track FREGAT DEB now!
10-day predictions


NORAD ID: 45814
Int'l Code: 2011-037AY
Perigee: 710.2 km
Apogee: 3,369.2 km
Inclination: 51.3 °
Period: 127.9 minutes
Semi major axis: 8410 km
RCS: Unknown
Launch date: July 18, 2011
Source: Commonwealth of Independent States (former USSR) (CIS)
Launch site: TYURATAM MISSILE AND SPACE COMPLEX (TTMTR)

Note: This is SATELLITE DEBRIS
aabbcc
Your satellite tracking list
Your tracking list is empty




NASA's NSSDC Master Catalog

Two Line Element Set (TLE):
1 45814U 11037AY  20220.07710350  .00007350  00000-0  11577-1 0  9990
2 45814  51.3420 227.7101 1580709 160.8202 205.9732 11.25523761  7321
Source of the keplerian elements: AFSPC